Powrót do katalogu

STARLINK-34104

AktywnyŁącznośćVLEO
NORAD 64102·PAYLOAD·🇺🇸 United States

Wystrzelony May 23, 2025 z Vandenberg Space Force Base

Loading…

Następne Przeloty (najbliższe 24 godziny)

TLE

ŚwieżeSource: CelesTrak SupGP

Epoka: Sep 15, 2026, 02:12 UTC

1 64102C 25110G   26258.09215278 -.00048745  00000+0 -14402-2 0  2589
2 64102  53.1581 223.2670 0001501  86.9546 274.5763 15.34414204    18

Śledź STARLINK-34104 w czasie rzeczywistym z AllMySat

Download on the App Store